EW9394 Weather Reports


Display with metric or nautical units.
time (UTC)temp
F
wind
direction
speed
MPH
gust
MPH
rain 1hr
in
rain 24hr
in
rain mn
in
humidity
%
barometer
mb
20260509160617 79 285 2.0 3.0 0.00 0.00 0.00 76 1012.3
20260509160112 79 245 0.0 1.0 0.00 0.00 0.00 76 1012.3
20260509155608 79 335 1.0 1.0 0.00 0.00 0.00 77 1012.0
20260509155105 78 352 4.0 6.0 0.00 0.00 0.00 77 1012.1
20260509154600 78 13 4.0 5.0 0.00 0.00 0.00 77 1012.1
20260509154058 78 284 2.0 3.0 0.00 0.00 0.00 78 1012.0
20260509153555 77 17 4.0 6.0 0.00 0.00 0.00 79 1012.0
20260509153052 77 334 2.0 3.0 0.00 0.00 0.00 79 1012.0
20260509152548 77 270 3.0 5.0 0.00 0.00 0.00 78 1012.0
20260509152045 77 272 1.0 1.0 0.00 0.00 0.00 79 1011.8
20260509151541 77 280 3.0 5.0 0.00 0.00 0.00 80 1012.0
20260509151039 77 64 2.0 3.0 0.00 0.00 0.00 80 1012.0
20260509150536 76 131 1.0 1.0 0.00 0.00 0.00 81 1012.0
20260509150035 77 302 2.0 3.0 0.00 0.00 0.00 79 1012.2
20260509145530 77 304 3.0 5.0 0.00 0.00 0.00 80 1012.1
20260509145025 76 286 3.0 5.0 0.00 0.00 0.00 81 1012.0
20260509144523 76 329 3.0 3.0 0.00 0.00 0.00 82 1012.3
20260509144020 75 278 3.0 3.0 0.00 0.00 0.00 84 1012.4
20260509143517 75 261 2.0 2.0 0.00 0.00 0.00 85 1012.0
20260509143015 74 335 4.0 5.0 0.00 0.00 0.00 85 1012.2
20260509142510 75 285 3.0 3.0 0.00 0.00 0.00 85 1011.9
20260509142005 74 259 1.0 1.0 0.00 0.00 0.00 86 1011.9
20260509141502 74 254 0.0 0.0 0.00 0.00 0.00 86 1012.0
20260509140959 74 291 3.0 3.0 0.00 0.00 0.00 86 1011.9
20260509140455 73 228 1.0 1.0 0.00 0.00 0.00 88 1011.8
20260509135954 73 290 4.0 6.0 0.00 0.00 0.00 89 1011.8
20260509135451 72 322 2.0 3.0 0.00 0.00 0.00 89 1011.7
20260509134948 72 285 2.0 2.0 0.00 0.00 0.00 90 1011.8
20260509134445 72 300 1.0 2.0 0.00 0.00 0.00 90 1011.8
20260509133943 72 336 5.0 7.0 0.00 0.00 0.00 91 1011.7
20260509133439 71 274 3.0 3.0 0.00 0.00 0.00 92 1011.6
20260509132937 71 326 3.0 3.0 0.00 0.00 0.00 93 1011.6
20260509132435 71 285 1.0 2.0 0.00 0.00 0.00 93 1011.4
20260509131932 71 282 3.0 6.0 0.00 0.00 0.00 94 1011.5
20260509131429 71 273 5.0 6.0 0.00 0.00 0.00 95 1011.4
20260509130926 70 301 3.0 3.0 0.00 0.00 0.00 95 1011.6
20260509130421 70 318 1.0 2.0 0.00 0.00 0.00 96 1011.6
20260509125918 70 249 1.0 2.0 0.00 0.00 0.00 96 1011.5
20260509125415 69 284 1.0 1.0 0.00 0.00 0.00 97 1011.4
20260509124911 69 272 3.0 3.0 0.00 0.00 0.00 97 1011.5
20260509124408 69 294 1.0 3.0 0.00 0.00 0.00 98 1011.3
20260509123906 69 250 0.0 0.0 0.00 0.00 0.00 98 1011.6
20260509123403 69 233 0.0 0.0 0.00 0.00 0.00 98 1011.3
20260509122858 69 188 0.0 0.0 0.00 0.00 0.00 98 1011.4
20260509122355 68 188 0.0 0.0 0.00 0.00 0.00 98 1011.5
20260509121852 68 187 0.0 0.0 0.00 0.00 0.00 98 1011.6
20260509121349 68 187 0.0 0.0 0.00 0.00 0.00 97 1011.3
20260509120848 68 187 0.0 0.0 0.00 0.00 0.00 97 1011.5
20260509120345 68 187 0.0 0.0 0.00 0.00 0.00 97 1011.5
20260509115843 68 187 0.0 0.0 0.00 0.00 0.00 97 1011.5
20260509115340 68 187 0.0 0.0 0.00 0.00 0.00 97 1011.6
20260509114838 68 187 0.0 0.0 0.00 0.00 0.00 97 1011.3
20260509114336 68 187 0.0 0.0 0.00 0.00 0.00 96 1011.0
20260509113835 69 186 0.0 0.0 0.00 0.00 0.00 96 1011.0
20260509113331 69 188 0.0 0.0 0.00 0.00 0.00 96 1011.1
20260509112828 69 189 0.0 0.0 0.00 0.00 0.00 96 1010.8
20260509112325 69 189 0.0 0.0 0.00 0.00 0.00 96 1010.7
20260509111822 69 188 0.0 0.0 0.00 0.00 0.00 95 1010.7
20260509111319 69 188 0.0 0.0 0.00 0.00 0.00 95 1010.7
20260509110817 70 181 1.0 1.0 0.00 0.00 0.00 95 1010.5
20260509110313 70 190 1.0 1.0 0.00 0.00 0.00 95 1010.6
20260509105811 70 191 1.0 1.0 0.00 0.00 0.00 95 1010.4
20260509105309 70 195 0.0 0.0 0.00 0.00 0.00 95 1010.4
20260509104805 70 197 0.0 0.0 0.00 0.00 0.00 95 1010.4
20260509104302 70 196 0.0 0.0 0.00 0.00 0.00 95 1010.5
20260509103800 70 196 0.0 0.0 0.00 0.00 0.00 95 1010.5
20260509103257 70 196 0.0 0.0 0.00 0.00 0.00 95 1010.6
20260509102756 70 196 0.0 0.0 0.00 0.00 0.00 95 1010.7
20260509102253 70 197 0.0 0.0 0.00 0.00 0.00 95 1010.6
20260509101749 70 197 0.0 0.0 0.00 0.00 0.00 95 1010.4
20260509101245 70 240 0.0 0.0 0.00 0.00 0.00 95 1010.3
20260509100742 70 245 0.0 0.0 0.00 0.00 0.00 95 1010.4
20260509100240 70 246 0.0 0.0 0.00 0.00 0.00 95 1010.3
20260509095736 70 237 0.0 0.0 0.00 0.00 0.00 95 1010.4
20260509095234 69 234 0.0 0.0 0.00 0.00 0.00 95 1010.4
20260509094731 69 234 0.0 0.0 0.00 0.00 0.00 95 1010.0
20260509094227 69 234 0.0 0.0 0.00 0.00 0.00 95 1010.0
20260509093725 69 234 0.0 0.0 0.00 0.00 0.00 95 1010.0
20260509093222 69 235 0.0 0.0 0.00 0.00 0.00 95 1009.8
20260509092720 69 219 0.0 0.0 0.00 0.00 0.00 95 1009.7
20260509092218 69 181 0.0 0.0 0.00 0.00 0.00 95 1009.2
20260509091716 69 154 2.0 2.0 0.00 0.00 0.00 95 1008.9
20260509091212 69 161 0.0 1.0 0.00 0.00 0.00 94 1008.9
20260509090710 70 176 0.0 0.0 0.00 0.00 0.00 94 1008.7
20260509090207 70 148 2.0 2.0 0.00 0.00 0.00 95 1008.4
20260509085705 70 88 2.0 3.0 0.00 0.00 0.00 94 1008.7
20260509085201 70 117 4.0 5.0 0.00 0.00 0.00 94 1008.8
20260509084658 70 187 3.0 3.0 0.00 0.00 0.00 94 1009.1
20260509084154 70 202 2.0 3.0 0.00 0.00 0.00 94 1009.4
20260509083653 70 175 4.0 6.0 0.00 0.00 0.00 94 1009.3
20260509083148 70 191 3.0 5.0 0.00 0.00 0.00 94 1009.5
20260509082646 70 184 1.0 2.0 0.00 0.00 0.00 94 1009.7
20260509082142 70 184 1.0 2.0 0.00 0.00 0.00 93 1010.0
20260509081639 70 179 1.0 1.0 0.00 0.00 0.00 93 1010.3
20260509081137 70 183 4.0 6.0 0.00 0.00 0.00 93 1010.9
20260509080635 70 138 2.0 2.0 0.00 0.00 0.00 92 1010.7
20260509080132 71 165 1.0 1.0 0.00 0.00 0.00 92 1010.8
20260509075630 71 155 2.0 2.0 0.00 0.00 0.00 92 1011.0
20260509075128 71 190 1.0 1.0 0.00 0.00 0.00 92 1011.2
20260509074624 71 175 0.0 1.0 0.00 0.00 0.00 91 1011.3
20260509074121 71 184 0.0 1.0 0.00 0.00 0.00 91 1011.5
20260509073618 71 186 0.0 0.0 0.00 0.00 0.00 91 1011.4
20260509073114 71 191 0.0 1.0 0.00 0.00 0.00 91 1012.0
20260509072611 71 184 2.0 3.0 0.00 0.00 0.00 91 1011.6
20260509072108 71 181 3.0 3.0 0.00 0.00 0.00 92 1011.9
20260509071604 70 196 1.0 1.0 0.00 0.00 0.00 92 1012.1
20260509071102 70 208 1.0 1.0 0.00 0.00 0.00 92 1012.1
20260509070559 70 227 0.0 1.0 0.00 0.00 0.00 92 1012.1
20260509070055 70 213 0.0 0.0 0.00 0.00 0.00 92 1011.8
20260509065550 70 209 0.0 0.0 0.00 0.00 0.00 92 1011.8
20260509065047 70 212 1.0 1.0 0.00 0.00 0.00 92 1011.5
20260509064544 70 200 0.0 0.0 0.00 0.00 0.00 92 1011.3
20260509064042 70 182 2.0 2.0 0.00 0.00 0.00 92 1011.2
20260509063537 70 168 2.0 2.0 0.00 0.00 0.00 92 1011.2
20260509063035 70 202 0.0 0.0 0.00 0.00 0.00 92 1011.4
20260509062532 70 188 0.0 0.0 0.00 0.00 0.00 92 1011.4
20260509062030 70 191 0.0 0.0 0.00 0.00 0.00 91 1011.7
20260509061526 70 203 0.0 0.0 0.00 0.00 0.00 91 1011.5
20260509061024 70 180 1.0 1.0 0.00 0.00 0.00 91 1011.7
20260509060521 70 204 0.0 0.0 0.00 0.00 0.00 91 1012.2
20260509060017 70 194 0.0 0.0 0.00 0.00 0.00 90 1012.2
20260509055512 71 198 0.0 1.0 0.00 0.00 0.00 90 1012.0
20260509055009 71 229 0.0 0.0 0.00 0.00 0.00 89 1012.5
20260509054505 71 228 1.0 1.0 0.00 0.00 0.00 88 1012.2
20260509054004 71 189 1.0 1.0 0.00 0.00 0.00 88 1012.0
20260509053502 71 177 2.0 2.0 0.00 0.00 0.00 88 1012.4
20260509052958 71 235 0.0 1.0 0.00 0.00 0.00 88 1012.7
20260509052456 71 246 0.0 1.0 0.00 0.00 0.00 88 1012.8
20260509051954 71 267 1.0 1.0 0.00 0.00 0.00 88 1012.8
20260509051451 71 245 2.0 2.0 0.00 0.00 0.00 87 1012.4
20260509050948 71 191 0.0 0.0 0.00 0.00 0.00 87 1011.9
20260509050445 71 187 1.0 1.0 0.00 0.00 0.00 87 1011.7
20260509045941 71 177 2.0 2.0 0.00 0.01 0.01 86 1011.5
20260509045439 72 205 0.0 0.0 0.00 0.01 0.01 86 1011.4
20260509044935 72 193 1.0 1.0 0.00 0.01 0.01 85 1011.2
20260509044434 72 173 3.0 3.0 0.00 0.01 0.01 85 1011.0
20260509043931 72 189 1.0 1.0 0.00 0.01 0.01 85 1011.3
20260509043426 72 199 1.0 1.0 0.00 0.01 0.01 84 1011.3
20260509042921 72 182 0.0 1.0 0.00 0.01 0.01 84 1011.3
20260509042419 72 193 1.0 1.0 0.00 0.01 0.01 83 1010.9
20260509041915 72 211 4.0 5.0 0.00 0.01 0.01 83 1011.3
20260509041412 73 164 1.0 1.0 0.00 0.01 0.01 82 1011.6
20260509040910 73 137 2.0 2.0 0.00 0.01 0.01 81 1011.9
20260509040408 72 186 1.0 1.0 0.00 0.01 0.01 82 1012.2
20260509035905 72 213 0.0 0.0 0.00 0.01 0.01 82 1012.3
20260509035402 72 212 0.0 0.0 0.00 0.01 0.01 82 1012.3
20260509034858 72 206 0.0 0.0 0.00 0.01 0.01 82 1012.0
20260509034355 72 202 1.0 1.0 0.00 0.01 0.01 82 1012.3
20260509033852 72 198 0.0 0.0 0.00 0.01 0.01 82 1012.0
20260509033350 72 198 0.0 0.0 0.00 0.01 0.01 82 1011.9
20260509032846 72 205 0.0 0.0 0.00 0.01 0.01 82 1011.6
20260509032343 72 204 0.0 0.0 0.00 0.01 0.01 82 1011.4
20260509031842 72 200 1.0 2.0 0.00 0.01 0.01 82 1011.4
20260509031338 72 187 1.0 1.0 0.00 0.01 0.01 82 1011.4
20260509030836 72 174 1.0 1.0 0.00 0.01 0.01 82 1011.6
20260509030334 72 186 0.0 0.0 0.00 0.01 0.01 82 1011.6
20260509025831 72 182 0.0 1.0 0.00 0.01 0.01 82 1011.3
20260509025326 72 154 1.0 1.0 0.00 0.01 0.01 82 1011.2
20260509024821 72 187 0.0 1.0 0.00 0.01 0.01 82 1011.0
20260509024318 72 201 1.0 1.0 0.00 0.01 0.01 82 1010.7
20260509023815 72 145 2.0 2.0 0.00 0.01 0.01 82 1010.8
20260509023312 72 177 0.0 0.0 0.00 0.01 0.01 82 1010.8
20260509022809 72 176 0.0 1.0 0.00 0.01 0.01 81 1010.7
20260509022307 73 189 2.0 2.0 0.00 0.01 0.01 81 1010.6
20260509021803 73 178 2.0 2.0 0.00 0.01 0.01 80 1010.5
20260509021300 73 182 1.0 1.0 0.00 0.01 0.01 81 1010.6
20260509020757 73 182 0.0 0.0 0.00 0.01 0.01 81 1010.4
20260509020255 73 197 1.0 1.0 0.00 0.01 0.01 81 1010.5
20260509015753 73 191 0.0 0.0 0.00 0.01 0.01 80 1010.5
20260509015251 73 189 5.0 7.0 0.00 0.01 0.01 80 1010.6
20260509014747 73 180 2.0 5.0 0.00 0.01 0.01 80 1010.5
20260509014244 73 195 3.0 3.0 0.00 0.01 0.01 80 1010.4
20260509013741 73 183 2.0 2.0 0.00 0.01 0.01 80 1010.6
20260509013236 73 198 1.0 1.0 0.00 0.01 0.01 80 1010.3
20260509012733 73 192 1.0 2.0 0.00 0.01 0.01 80 1010.2
20260509012230 73 188 1.0 2.0 0.00 0.01 0.01 79 1010.3
20260509011727 73 197 1.0 1.0 0.00 0.01 0.01 79 1010.1
20260509011225 73 185 1.0 1.0 0.00 0.01 0.01 79 1010.0
20260509010723 73 193 2.0 3.0 0.00 0.01 0.01 79 1009.9
20260509010219 73 185 2.0 2.0 0.00 0.01 0.01 79 1009.9
20260509005716 73 192 1.0 2.0 0.00 0.01 0.01 78 1009.8
20260509005214 73 185 3.0 5.0 0.00 0.01 0.01 78 1009.9
20260509004713 73 187 1.0 1.0 0.00 0.01 0.01 78 1010.0
20260509004212 73 182 1.0 1.0 0.00 0.01 0.01 77 1010.0
20260509003709 73 200 0.0 1.0 0.00 0.01 0.01 77 1009.6
20260509003207 74 193 1.0 1.0 0.00 0.01 0.01 76 1009.6
20260509002704 74 180 1.0 3.0 0.00 0.01 0.01 76 1009.6
20260509002201 74 189 1.0 1.0 0.00 0.01 0.01 76 1009.7
20260509001659 74 137 2.0 2.0 0.00 0.01 0.01 75 1009.7
20260509001155 74 181 0.0 0.0 0.00 0.01 0.01 75 1010.0
20260509000653 75 214 3.0 3.0 0.00 0.01 0.01 74 1009.7
20260509000149 75 134 2.0 3.0 0.00 0.01 0.01 73 1009.9
20260508235647 75 175 2.0 2.0 0.00 0.01 0.01 73 1010.1
20260508235143 75 178 1.0 1.0 0.00 0.01 0.01 74 1010.1
20260508234641 74 192 1.0 1.0 0.00 0.01 0.01 74 1010.2
20260508234137 75 192 1.0 1.0 0.00 0.01 0.01 73 1010.0
20260508233636 75 151 2.0 2.0 0.00 0.01 0.01 72 1010.2
20260508233134 75 183 3.0 3.0 0.00 0.01 0.01 72 1010.2
20260508232631 75 159 2.0 3.0 0.00 0.01 0.01 72 1010.4
20260508232128 75 171 4.0 5.0 0.00 0.01 0.01 72 1010.2
20260508231625 76 175 3.0 5.0 0.00 0.01 0.01 71 1010.2
20260508231122 76 131 2.0 2.0 0.00 0.01 0.01 71 1010.1
20260508230618 75 176 4.0 6.0 0.00 0.01 0.01 71 1010.4
20260508230115 75 203 1.0 5.0 0.00 0.01 0.01 72 1010.4
20260508225613 75 186 3.0 6.0 0.00 0.01 0.01 72 1010.4
20260508225109 75 178 2.0 3.0 0.00 0.01 0.01 72 1010.4
20260508224607 75 161 3.0 5.0 0.00 0.01 0.01 72 1010.4
20260508224104 75 197 3.0 7.0 0.00 0.01 0.01 72 1010.1
20260508223602 76 202 5.0 6.0 0.00 0.01 0.01 70 1010.2
20260508223059 77 189 3.0 5.0 0.00 0.01 0.01 70 1010.2
20260508222556 77 94 2.0 3.0 0.00 0.01 0.01 69 1010.3
20260508222053 77 214 3.0 3.0 0.00 0.01 0.01 71 1010.2
20260508221549 77 211 4.0 5.0 0.00 0.01 0.01 70 1010.2
20260508221045 78 174 5.0 9.0 0.00 0.01 0.01 69 1010.1
20260508220542 78 198 3.0 5.0 0.00 0.01 0.01 69 1010.1
20260508220038 78 196 1.0 1.0 0.00 0.01 0.01 69 1010.1
20260508215535 78 198 5.0 6.0 0.00 0.01 0.01 68 1010.0
20260508215032 77 208 3.0 3.0 0.00 0.01 0.01 70 1010.2
20260508214529 78 124 1.0 2.0 0.00 0.01 0.01 70 1010.1
20260508214025 78 199 4.0 6.0 0.00 0.01 0.01 70 1010.1
20260508213523 76 187 1.0 2.0 0.00 0.01 0.01 71 1010.1
20260508213018 77 198 5.0 8.0 0.00 0.01 0.01 71 1010.1
20260508212515 76 146 2.0 3.0 0.00 0.01 0.01 72 1010.0
20260508212012 76 178 2.0 2.0 0.00 0.01 0.01 75 1010.2
20260508211507 74 213 3.0 3.0 0.00 0.01 0.01 78 1010.4
20260508211004 73 198 2.0 3.0 0.00 0.01 0.01 79 1010.8
20260508210501 73 186 2.0 2.0 0.00 0.01 0.01 81 1011.0
20260508205957 73 188 0.0 1.0 0.00 0.01 0.01 81 1011.4
20260508205454 73 167 2.0 3.0 0.00 0.01 0.01 80 1011.6
20260508204951 73 183 1.0 1.0 0.00 0.01 0.01 79 1011.6
20260508204448 74 185 1.0 1.0 0.00 0.01 0.01 75 1011.7
20260508203943 74 191 3.0 3.0 0.00 0.01 0.01 71 1012.2
20260508203440 75 183 1.0 2.0 0.00 0.01 0.01 71 1012.1
20260508202935 75 189 1.0 2.0 0.00 0.01 0.01 71 1012.1
20260508202433 75 192 2.0 2.0 0.00 0.01 0.01 71 1012.3
20260508201930 75 166 5.0 5.0 0.00 0.01 0.01 70 1012.0
20260508201426 75 169 1.0 2.0 0.00 0.01 0.01 70 1012.2
20260508200923 75 204 1.0 2.0 0.00 0.01 0.01 69 1012.0
20260508200420 76 185 2.0 2.0 0.00 0.01 0.01 68 1012.0
20260508195915 76 183 3.0 3.0 0.00 0.01 0.01 68 1012.0
20260508195412 76 190 2.0 3.0 0.00 0.01 0.01 68 1012.1
20260508194908 77 184 3.0 5.0 0.00 0.01 0.01 67 1012.1
20260508194406 77 176 3.0 5.0 0.00 0.01 0.01 66 1012.2
20260508193903 78 172 2.0 3.0 0.00 0.01 0.01 66 1012.0
20260508193359 78 179 3.0 3.0 0.00 0.01 0.01 65 1012.2
20260508192856 80 161 3.0 5.0 0.00 0.01 0.01 63 1012.1
20260508192353 79 243 1.0 1.0 0.00 0.01 0.01 64 1011.9
20260508191850 78 167 2.0 2.0 0.00 0.01 0.01 64 1011.9
20260508191348 79 173 4.0 7.0 0.00 0.01 0.01 65 1012.2
20260508190844 78 175 3.0 3.0 0.00 0.01 0.01 65 1012.3
20260508190341 78 171 2.0 3.0 0.00 0.01 0.01 64 1012.2
20260508185837 79 271 3.0 3.0 0.00 0.01 0.01 64 1012.4
20260508185335 79 196 1.0 2.0 0.00 0.01 0.01 63 1012.6
20260508184832 79 175 0.0 1.0 0.00 0.01 0.01 64 1012.4
20260508184329 78 229 2.0 2.0 0.00 0.01 0.01 63 1012.5
20260508183826 79 214 3.0 3.0 0.00 0.01 0.01 62 1012.4
20260508183323 79 229 2.0 2.0 0.00 0.01 0.01 62 1012.6
20260508182818 78 153 5.0 7.0 0.00 0.01 0.01 64 1012.9
20260508182315 78 162 1.0 1.0 0.00 0.01 0.01 64 1012.7
20260508181811 78 200 2.0 2.0 0.00 0.01 0.01 63 1013.0
20260508181308 78 208 3.0 3.0 0.00 0.01 0.01 62 1012.9
20260508180805 78 183 1.0 2.0 0.00 0.01 0.01 62 1013.0
20260508180302 78 178 3.0 5.0 0.00 0.01 0.01 62 1013.1
20260508175758 79 237 1.0 2.0 0.00 0.01 0.01 61 1013.1
20260508175255 77 112 1.0 2.0 0.00 0.01 0.01 63 1013.4
20260508174753 78 178 3.0 3.0 0.00 0.01 0.01 63 1013.5
20260508174250 78 190 3.0 3.0 0.00 0.01 0.01 60 1013.5
20260508173746 78 184 0.0 1.0 0.00 0.01 0.01 64 1013.5
20260508173242 77 157 2.0 3.0 0.00 0.01 0.01 63 1013.4
20260508172739 77 206 1.0 1.0 0.00 0.01 0.01 64 1013.6
20260508172236 76 276 4.0 5.0 0.00 0.01 0.01 62 1013.8
20260508171732 77 213 2.0 3.0 0.00 0.01 0.01 62 1013.9
20260508171228 75 140 1.0 1.0 0.00 0.01 0.01 64 1013.9
20260508170726 74 213 3.0 3.0 0.00 0.01 0.01 65 1014.5
20260508170223 75 184 1.0 3.0 0.00 0.01 0.01 66 1014.6
20260508165720 74 207 3.0 6.0 0.00 0.01 0.01 65 1014.6
20260508165218 74 183 0.0 1.0 0.00 0.01 0.01 65 1014.9
20260508164714 74 104 4.0 5.0 0.00 0.01 0.01 65 1014.9
20260508164210 73 148 1.0 2.0 0.00 0.01 0.01 67 1014.9
20260508163709 73 201 5.0 6.0 0.00 0.01 0.01 66 1015.1
20260508163206 73 214 5.0 7.0 0.00 0.01 0.01 66 1015.2
20260508162701 73 181 0.0 1.0 0.00 0.01 0.01 66 1015.0
20260508162158 73 203 2.0 2.0 0.00 0.01 0.01 66 1015.0
20260508161655 73 209 3.0 3.0 0.00 0.01 0.01 66 1015.2
20260508161153 73 190 3.0 3.0 0.00 0.01 0.01 66 1015.2